TimeEDT,TemperatureF,Dew PointF,Humidity,Sea Level PressureIn,VisibilityMPH,Wind Direction,Wind SpeedMPH,Gust SpeedMPH,PrecipitationIn,Events,Conditions,WindDirDegrees,DateUTC
12:17 AM,59.0,57.2,94,30.02,10.0,Calm,Calm,-,N/A,,Overcast,0,2012-10-05 04:17:00
12:54 AM,59.0,59.0,100,30.02,4.0,Calm,Calm,-,N/A,,Overcast,0,2012-10-05 04:54:00
1:06 AM,59.0,57.2,94,30.02,4.0,Calm,Calm,-,N/A,,Overcast,0,2012-10-05 05:06:00
1:27 AM,59.0,57.2,94,30.01,5.0,Calm,Calm,-,N/A,,Overcast,0,2012-10-05 05:27:00
1:54 AM,59.0,57.9,96,30.02,10.0,Calm,Calm,-,N/A,,Overcast,0,2012-10-05 05:54:00
2:52 AM,57.2,57.2,100,29.99,1.5,ESE,3.5,-,N/A,,Overcast,120,2012-10-05 06:52:00
2:54 AM,57.9,57.0,97,30.00,1.0,Calm,Calm,-,N/A,,Overcast,0,2012-10-05 06:54:00
3:03 AM,57.2,57.2,100,29.99,0.8,Calm,Calm,-,N/A,,Overcast,0,2012-10-05 07:03:00
3:10 AM,55.4,55.4,100,29.99,0.5,Calm,Calm,-,N/A,Fog,Fog,0,2012-10-05 07:10:00
3:20 AM,55.4,55.4,100,29.99,1.5,Calm,Calm,-,N/A,,Mostly Cloudy,0,2012-10-05 07:20:00
3:22 AM,55.4,55.4,100,29.99,4.0,Calm,Calm,-,N/A,,Mostly Cloudy,0,2012-10-05 07:22:00
3:54 AM,57.9,57.0,97,29.99,10.0,Calm,Calm,-,0.00,,Overcast,0,2012-10-05 07:54:00
4:54 AM,57.9,57.0,97,30.00,10.0,Calm,Calm,-,N/A,,Overcast,0,2012-10-05 08:54:00
5:54 AM,57.0,55.9,96,30.00,10.0,Calm,Calm,-,N/A,,Overcast,0,2012-10-05 09:54:00
6:06 AM,55.4,55.4,100,30.00,10.0,Calm,Calm,-,N/A,,Overcast,0,2012-10-05 10:06:00
6:54 AM,57.0,55.9,96,30.01,8.0,Calm,Calm,-,N/A,,Overcast,0,2012-10-05 10:54:00
7:54 AM,57.0,55.9,96,30.00,4.0,ESE,4.6,-,N/A,,Overcast,110,2012-10-05 11:54:00
8:24 AM,59.0,57.2,94,30.00,10.0,Calm,Calm,-,N/A,,Overcast,0,2012-10-05 12:24:00
8:54 AM,59.0,55.9,90,30.00,10.0,Calm,Calm,-,N/A,,Overcast,0,2012-10-05 12:54:00
9:54 AM,60.1,57.0,90,30.01,10.0,Calm,Calm,-,0.00,,Overcast,0,2012-10-05 13:54:00
10:54 AM,64.0,59.0,84,29.99,10.0,Calm,Calm,-,N/A,,Mostly Cloudy,0,2012-10-05 14:54:00
11:43 AM,64.4,59.0,83,29.98,10.0,Calm,Calm,-,N/A,,Partly Cloudy,0,2012-10-05 15:43:00
11:54 AM,66.0,59.0,78,29.99,10.0,Calm,Calm,-,N/A,,Partly Cloudy,0,2012-10-05 15:54:00
12:54 PM,70.0,60.1,71,29.96,10.0,Calm,Calm,-,0.00,Rain,Light Rain,0,2012-10-05 16:54:00
1:54 PM,73.9,55.0,52,29.94,10.0,Calm,Calm,-,0.00,,Clear,0,2012-10-05 17:54:00
2:54 PM,75.0,57.0,53,29.91,10.0,South,5.8,-,N/A,,Clear,190,2012-10-05 18:54:00
3:54 PM,75.0,57.9,55,29.89,10.0,SE,5.8,-,0.00,,Clear,140,2012-10-05 19:54:00
4:54 PM,73.0,57.0,57,29.90,10.0,SSW,4.6,-,N/A,,Clear,200,2012-10-05 20:54:00
5:54 PM,68.0,55.9,65,29.89,10.0,SW,6.9,-,N/A,,Clear,220,2012-10-05 21:54:00
6:54 PM,64.0,57.0,78,29.90,10.0,Calm,Calm,-,N/A,,Clear,0,2012-10-05 22:54:00
7:54 PM,59.0,57.0,93,29.91,10.0,Calm,Calm,-,0.00,,Scattered Clouds,0,2012-10-05 23:54:00
8:54 PM,55.9,55.0,97,29.90,7.0,Calm,Calm,-,N/A,,Clear,0,2012-10-06 00:54:00
9:54 PM,55.9,55.0,97,29.89,6.0,South,4.6,-,N/A,,Clear,190,2012-10-06 01:54:00
10:54 PM,55.9,55.0,97,29.89,9.0,WSW,3.5,-,N/A,,Clear,240,2012-10-06 02:54:00
11:54 PM,63.0,57.0,81,29.88,10.0,WSW,4.6,-,N/A,,Clear,240,2012-10-06 03:54:00